FACSAT-2

导读

FACSAT-2是哥伦比亚(CO)于哥伦比亚当地时间2023年4月15日08:00发射的国产卫星,由哥伦比亚航空航天局(原哥伦比亚空军,缩写FAC)主导开发,延续了FACSAT系列国产太空项目推进哥伦比亚航天自主化的目标,项目旨在提升哥伦比亚在对地观测、地理信息采集领域的自主空间服务能力,减少对境外航天服务的依赖,推动本国地理测绘、国土监测领域的技术自主,是哥伦比亚航天事业自主发展进程中的重要一步。

基本信息
目录编号:
56205
目录名称:
FACSAT-2
国际标识:
2023-054AD
轨道中心:
EARTH
卫星名称:
FACSAT-2
卫星全名:
--
卫星状态:
已陨落 最后检测时间 2025-10-27
发射日期:
2023-04-15 UTC
国别 :
(CO)
星等 :
--
轨道信息
数据来源 国际轨道数据
星历时间: 2025-10-27T18:05:25+0800
轨道信息已过期271天
半长轴: 6545.033km
偏心率: 0.0005678
轨道倾角: 97.286°
近地点辐角 177.972°
升交点赤经 219.098°
平近点角 182.160°
近地点: 163.181km
远地点: 170.615km
周期: 87.827分钟
每日圈数: 16.395891
详细信息
使用方式:
暂无